Weather in Posyolok Melioratorov

Russia / Tyumen Oblast     57°12′33″N   65°36′06″E
temp.,
°C
wind,
m/s
gust,
m/s
humid.,
%
clouds,
%
prec.,
mm/h
press.,
hPa
HPBL,
m
23 january, sat
sat2323:00−31n349668 0.0 102550
02:00−33n34960 0.0 102852
05:00−35nnw34950 0.0 103059
08:00−38n339589 0.0 103433
11:00−36nnw249451 0.0 1035132
14:00−32nw228792 0.0 1037259
17:00−35wnw129357 0.0 103919
20:00−36wsw119440 0.0 104019
24 january, sun
sun2423:00−35s129167 0.0 104019
02:00−34sse2291100 0.0 104019
05:00−33se2495100 0.0 103789
08:00−35sse33932 0.0 104034
11:00−32se469547 0.0 1040161
14:00−28se4795100 0.0 1038254
17:00−26se5995100 0.0 1036304
20:00−25sse51098100 1.0 1034346
25 january, mon
mon2523:00−24sse5998100 2.2 1032359
02:00−22se4698100 0.5 1030320
05:00−22ese3498100 0.6 1030118
08:00−22ese2298100 0.0 103038
11:00−24se5796100 1.6 1036326
14:00−23se4696100 0.2 1036345
17:00−19ese229798 0.1 103120
20:00−17se349799 0.1 1031113
26 january, tue
tue2623:00−15sse359699 0.4 1029147
02:00−7sse229799 0.6 102665
05:000wsw5996100 1.1 1025319
08:00−4sw389790 0.3 1026237
11:00−3wsw5119396 0.1 1024383
14:00−1wsw699394 0.0 1025543
17:00−2wsw6109297 0.1 1025520
20:00−3wsw61292100 0.0 1025418
27 january, wed
wed2723:00−5wsw5129197 0.0 1025362
02:00−4wsw61291100 0.0 1024430
05:00−4wsw51192100 0.0 1024413
08:00−4w51291100 0.0 1022467
11:00−4w5109291 0.0 1024450
14:00−3w599195 0.0 1025502
17:00−4w259699 0.1 1025169
20:00−9wsw349464 0.0 102764